Regional Weather Roundup
Issued by NWS

Home | Current Version | Previous Version | Text Only | Print | Product List | Glossary Off
Versions: 1 2 3 4 5 6 7 8 9 10 11 12 13 14 15 16 17 18 19 20 21 22 23 24 25 26 27 28 29 30 31 32 33 34 35 36 37 38 39 40 41 42 43 44 45 46 47 48 49 50

859
ASUS43 KDTX 231910
RWRMI
MICHIGAN HOURLY REGIONAL WEATHER ROUNDUP
NATIONAL WEATHER SERVICE DETROIT/PONTIAC MI
ISSUED BY NATIONAL WEATHER SERVICE GRAND RAPIDS MI
200 PM EST MON JAN 23 2017

NOTE: "FAIR" INDICATES FEW OR NO CLOUDS BELOW 12,000 FEET WITH NO
SIGNIFICANT WEATHER AND/OR OBSTRUCTION TO VISIBILITY.

MIZ047>049-052>055-059>063-066>070-074>076-081>083-232000-
SOUTHEAST LOWER MICHIGAN

CITY           SKY/WX    TMP DP  RH WIND       PRES   REMARKS
ADRIAN         CLOUDY    43  43 100 NE8       29.64F
ALMA           CLOUDY    39  39  99 N5        29.70F FOG
ANN ARBOR      CLOUDY    44  42  93 N5        29.64F
BAD AXE        CLOUDY    38  38 100 CALM      29.70S FOG
DETROIT CITY   CLOUDY    43  41  93 NE6       29.65F
DETROIT        CLOUDY    44  42  93 N7        29.64F FOG
FLINT          LGT RAIN  41  39  93 NE6       29.68F
GROSSE ILE     CLOUDY    42  41  96 NE9       29.62F FOG
HILLSDALE      RAIN      41  41 100 N7        29.63F
HOWELL         DRIZZLE   40  40  97 NW6       29.65F

CITY           SKY/WX    TMP DP  RH WIND       PRES   REMARKS
JACKSON        LGT RAIN  42  40  92 N6        29.65F FOG
LANSING        FOG       39  37  92 N6        29.68F VSB 3/4 WCI  35
MASON          LGT RAIN  40  40 100 N6        29.66F
MONROE         CLOUDY    43  42  97 N7        29.62F
MT. CLEMENS    CLOUDY    42  42 100 N8        29.64F FOG
PONTIAC        CLOUDY    41  39  93 N7        29.64F
PORT HOPE        N/A     37  36  96 CALM      29.70S
PORT HURON     CLOUDY    39  39 100 NE6       29.66F FOG     WCI  35
TRI CITIES     LGT RAIN  37  37 100 N7        29.70F VSB 3/4 WCI  32
YPSILANTI      CLOUDY    44  43  96 NE8       29.65F
$$
MIZ043>046-050>051-056>058-064>065-071>073-077>080-232000-
SOUTHWEST LOWER MICHIGAN

CITY           SKY/WX    TMP DP  RH WIND       PRES   REMARKS
BATTLE CREEK   CLOUDY    41  41 100 N7        29.66F FOG
BENTON HARBOR  CLOUDY    40  36  86 VRB7      29.71F
BIG RAPIDS     CLOUDY    39  38  98 N5        29.69F FOG
COLDWATER      CLOUDY    41  41 100 N7        29.65F FOG
HOLLAND        CLOUDY    41  37  86 NW6       29.70F
GRAND RAPIDS   CLOUDY    42  39  89 N5        29.69S FOG
KALAMAZOO      CLOUDY    42  39  89 N7        29.67F FOG
MARSHALL       CLOUDY    40  40  98 CALM      29.66F FOG
MOUNT PLEASANT CLOUDY    39  38  99 N6        29.69F FOG     WCI  35
MUSKEGON       CLOUDY    46  37  71 N8        29.71F
STURGIS        CLOUDY    41  41 100 N7        29.65F FOG
$$
MIZ016>042-232000-
NORTHERN LOWER MICHIGAN

CITY           SKY/WX    TMP DP  RH WIND       PRES   REMARKS
ALPENA         CLOUDY    37  36  96 E6        29.74F FOG     WCI  32
BEAVER ISLAND  CLOUDY    36  36 100 E6        29.74F FOG     WCI  31
BELLAIRE       CLOUDY    38  38  99 CALM      29.72F FOG
CADILLAC       CLOUDY    37  36  96 CALM      29.69F FOG
CHARLEVOIX     CLOUDY    37  37 100 E3        29.75F FOG
GAYLORD        CLOUDY    37  34  89 CALM      29.70F FOG
HOUGHTON LAKE  CLOUDY    39  37  92 CALM      29.70F
MANISTEE       CLOUDY    39  39 100 NW7       29.72F WCI  34
OSCODA         CLOUDY    38  37  98 NE3       29.71F FOG
PELLSTON       FOG       36  35  96 E6        29.74F VSB 1/4 WCI  31
TRAVERSE CITY  CLOUDY    41  38  89 CALM      29.71F FOG
LUDINGTON      CLOUDY    40  40 100 NW6       29.72F
$$
MIZ007>008-015-232000-
EASTERN UPPER MICHIGAN

CITY           SKY/WX    TMP DP  RH WIND       PRES   REMARKS
KINROSS        CLOUDY    34  33  96 E12       29.77S WCI  25
MACKINAC ISLAN CLOUDY    34  34 100 E8        29.75F WCI  27
NEWBERRY       CLOUDY    34  33  96 NE5       29.75F FOG     WCI  30
S. S. MARIE    CLOUDY    36  34  92 E5        29.77F FOG     WCI  32
$$
MIZ004>006-011>014-085-232000-
CENTRAL UPPER MICHIGAN

CITY           SKY/WX    TMP DP  RH WIND       PRES   REMARKS
MANISTIQUE     FOG       35  34  96 E9        29.75S VSB 3/4 WCI  27
ESCANABA       CLOUDY    38  37  97 CALM      29.75F
SAWYER-GWINN   CLOUDY    34  34 100 N5        29.74F WCI  30
$$
MIZ001>003-009>011-084-232000-
WESTERN UPPER MICHIGAN

CITY           SKY/WX    TMP DP  RH WIND       PRES   REMARKS
IRON MOUNTAIN  CLOUDY    36  33  89 NW5       29.73F WCI  32
HOUGHTON       CLOUDY    36  34  92 NW3       29.74F
COPPER HARBOR    N/A     35  34  96 N6        29.75F WCI  30
IRONWOOD       FOG       35  35 100 W5        29.76F VSB 1/4 WCI  31
$$

ABBREVIATIONS USED IN REMARKS
   TC - TEMPERATURE IN CELSIUS
  WCI - WIND CHILL INDEX
   HX - HEAT INDEX
  VSB - VISIBILITY





USA.gov is the U.S. government's official web portal to all federal, state and local government web resources and services.